When you browse on this site, cookies collect data to enhance your experience and personalize the content and advertising you see.
Visit our Privacy Policy to learn more. By continuing to use the site, you agree to this use of cookies and data.
  • In Schweiz
  • Länderverzeichnis
  • Für 7 Tage
  • Wassertemperatur
  • Wetterkarte
  • Widgets
  • user-avatar
    Anmelden

    Stündliche Wetter Tolokun'

    Heute, 25 August, Sonntag

    Zeit Temperatur Niederschläge Wind Luftdruck Luftfeuchtigkeit
    00:00 +16°C° 0 mm 2 m/S 760 mmHg 65%
    01:00 +16°C° 0 mm 2 m/S 760 mmHg 67%
    02:00 +15°C° 0 mm 2 m/S 760 mmHg 69%
    03:00 +15°C° 0 mm 2 m/S 760 mmHg 71%
    04:00 +14°C° 0 mm 2 m/S 760 mmHg 73%
    05:00 +14°C° 0 mm 2 m/S 760 mmHg 75%
    06:00 +16°C° 0 mm 2 m/S 760 mmHg 69%
    07:00 +18°C° 0 mm 2 m/S 760 mmHg 64%
    08:00 +19°C° 0 mm 2 m/S 760 mmHg 58%
    09:00 +21°C° 0 mm 2 m/S 760 mmHg 53%
    10:00 +24°C° 0 mm 2 m/S 760 mmHg 48%
    11:00 +26°C° 0 mm 2 m/S 760 mmHg 42%
    12:00 +27°C° 0 mm 2 m/S 760 mmHg 40%
    13:00 +27°C° 0 mm 2 m/S 760 mmHg 38%
    14:00 +28°C° 0 mm 2 m/S 760 mmHg 36%
    15:00 +28°C° 0 mm 2 m/S 760 mmHg 39%
    16:00 +28°C° 0 mm 2 m/S 759 mmHg 42%
    17:00 +27°C° 0 mm 2 m/S 759 mmHg 44%
    18:00 +26°C° 0 mm 2 m/S 760 mmHg 51%
    19:00 +24°C° 0 mm 2 m/S 760 mmHg 58%
    20:00 +21°C° 0 mm 2 m/S 760 mmHg 65%
    21:00 +20°C° 0 mm 3 m/S 760 mmHg 70%
    22:00 +19°C° 0 mm 3 m/S 760 mmHg 74%
    23:00 +19°C° 0 mm 3 m/S 760 mmHg 79%

    Morgen, 26 August, Montag

    Zeit Temperatur Niederschläge Wind Luftdruck Luftfeuchtigkeit
    00:00 +18°C° 0 mm 3 m/S 761 mmHg 82%
    01:00 +18°C° 0 mm 2 m/S 761 mmHg 84%
    02:00 +17°C° 0 mm 2 m/S 761 mmHg 87%
    03:00 +17°C° 0 mm 2 m/S 761 mmHg 88%
    04:00 +16°C° 0 mm 2 m/S 761 mmHg 90%
    05:00 +16°C° 0 mm 2 m/S 761 mmHg 91%
    06:00 +18°C° 0 mm 2 m/S 761 mmHg 83%
    07:00 +19°C° 0 mm 2 m/S 761 mmHg 76%
    08:00 +21°C° 0 mm 2 m/S 761 mmHg 68%
    09:00 +23°C° 0 mm 2 m/S 761 mmHg 61%
    10:00 +25°C° 0 mm 3 m/S 761 mmHg 55%
    11:00 +26°C° 0 mm 3 m/S 761 mmHg 48%
    12:00 +27°C° 0 mm 2 m/S 760 mmHg 46%
    13:00 +27°C° 0 mm 2 m/S 760 mmHg 43%
    14:00 +28°C° 0 mm 2 m/S 760 mmHg 40%
    15:00 +28°C° 0 mm 2 m/S 760 mmHg 41%
    16:00 +28°C° 0 mm 2 m/S 759 mmHg 42%
    17:00 +27°C° 0 mm 2 m/S 759 mmHg 43%
    18:00 +25°C° 0 mm 2 m/S 759 mmHg 49%
    19:00 +23°C° 0 mm 2 m/S 759 mmHg 54%
    20:00 +20°C° 0 mm 3 m/S 759 mmHg 59%
    21:00 +19°C° 0 mm 2 m/S 759 mmHg 61%
    22:00 +19°C° 0 mm 2 m/S 759 mmHg 63%
    23:00 +18°C° 0 mm 2 m/S 759 mmHg 65%

    übermorgen, 27 August, Dienstag

    Zeit Temperatur Niederschläge Wind Luftdruck Luftfeuchtigkeit
    00:00 +18°C° 0 mm 2 m/S 759 mmHg 67%
    01:00 +17°C° 0 mm 2 m/S 759 mmHg 68%
    02:00 +18°C° 0 mm 1 m/S 759 mmHg 69%
    03:00 +16°C° 0 mm 1 m/S 759 mmHg 70%
    04:00 +16°C° 0 mm 1 m/S 759 mmHg 71%
    05:00 +15°C° 0 mm 1 m/S 759 mmHg 73%
    06:00 +18°C° 0 mm 1 m/S 759 mmHg 67%
    07:00 +20°C° 0 mm 1 m/S 759 mmHg 61%
    08:00 +22°C° 0 mm 1 m/S 759 mmHg 55%
    09:00 +24°C° 0 mm 1 m/S 759 mmHg 51%
    10:00 +25°C° 0 mm 1 m/S 759 mmHg 47%
    11:00 +27°C° 0 mm 2 m/S 759 mmHg 43%
    12:00 +27°C° 0 mm 2 m/S 758 mmHg 41%
    13:00 +28°C° 0 mm 2 m/S 758 mmHg 39%
    14:00 +29°C° 0 mm 2 m/S 758 mmHg 38%
    15:00 +28°C° 0 mm 2 m/S 758 mmHg 40%
    16:00 +28°C° 0 mm 2 m/S 758 mmHg 42%
    17:00 +27°C° 0 mm 3 m/S 757 mmHg 44%
    18:00 +25°C° 0 mm 2 m/S 757 mmHg 50%
    19:00 +23°C° 0 mm 2 m/S 758 mmHg 57%
    20:00 +20°C° 0 mm 2 m/S 758 mmHg 63%
    21:00 +20°C° 0 mm 2 m/S 758 mmHg 68%
    22:00 +19°C° 0 mm 2 m/S 758 mmHg 72%
    23:00 +19°C° 0 mm 2 m/S 758 mmHg 77%

    28 August, Mittwoch

    Zeit Temperatur Niederschläge Wind Luftdruck Luftfeuchtigkeit
    00:00 +18°C° 0 mm 2 m/S 758 mmHg 81%
    01:00 +18°C° 0 mm 2 m/S 758 mmHg 85%
    02:00 +17°C° 0 mm 2 m/S 758 mmHg 89%
    03:00 +17°C° 0 mm 2 m/S 758 mmHg 90%
    04:00 +16°C° 0 mm 2 m/S 758 mmHg 91%
    05:00 +16°C° 0 mm 2 m/S 758 mmHg 93%
    06:00 +18°C° 0 mm 2 m/S 758 mmHg 85%
    07:00 +19°C° 0 mm 2 m/S 758 mmHg 77%
    08:00 +21°C° 0 mm 2 m/S 758 mmHg 69%
    09:00 +22°C° 0 mm 3 m/S 758 mmHg 62%
    10:00 +24°C° 0 mm 3 m/S 758 mmHg 55%
    11:00 +26°C° 0 mm 3 m/S 758 mmHg 48%
    12:00 +26°C° 0 mm 3 m/S 758 mmHg 45%
    13:00 +27°C° 0 mm 3 m/S 758 mmHg 42%
    14:00 +27°C° 0 mm 3 m/S 757 mmHg 40%
    15:00 +27°C° 0 mm 3 m/S 757 mmHg 40%
    16:00 +26°C° 0 mm 3 m/S 757 mmHg 41%
    17:00 +26°C° 0 mm 3 m/S 757 mmHg 42%
    18:00 +24°C° 0 mm 3 m/S 757 mmHg 48%
    19:00 +21°C° 0 mm 3 m/S 758 mmHg 54%
    20:00 +19°C° 0 mm 3 m/S 758 mmHg 60%
    21:00 +18°C° 0 mm 3 m/S 758 mmHg 63%
    22:00 +17°C° 0 mm 3 m/S 758 mmHg 66%
    23:00 +16°C° 0 mm 3 m/S 758 mmHg 69%

    29 August, Donnerstag

    Zeit Temperatur Niederschläge Wind Luftdruck Luftfeuchtigkeit
    00:00 +16°C° 0 mm 3 m/S 758 mmHg 69%
    01:00 +14°C° 0 mm 3 m/S 758 mmHg 68%
    02:00 +13°C° 0 mm 3 m/S 758 mmHg 68%
    03:00 +12°C° 0 mm 3 m/S 758 mmHg 67%
    04:00 +12°C° 0 mm 3 m/S 759 mmHg 66%
    05:00 +11°C° 0 mm 3 m/S 759 mmHg 66%
    06:00 +12°C° 0 mm 3 m/S 759 mmHg 62%
    07:00 +14°C° 0 mm 3 m/S 759 mmHg 57%
    08:00 +16°C° 0 mm 3 m/S 759 mmHg 53%
    09:00 +17°C° 0 mm 4 m/S 759 mmHg 47%
    10:00 +19°C° 0 mm 4 m/S 759 mmHg 42%
    11:00 +20°C° 0 mm 4 m/S 759 mmHg 36%
    12:00 +21°C° 0 mm 4 m/S 759 mmHg 34%
    13:00 +22°C° 0 mm 4 m/S 759 mmHg 31%
    14:00 +22°C° 0 mm 3 m/S 758 mmHg 29%
    15:00 +22°C° 0 mm 3 m/S 758 mmHg 31%
    16:00 +22°C° 0 mm 4 m/S 758 mmHg 34%
    17:00 +21°C° 0 mm 4 m/S 758 mmHg 36%
    18:00 +19°C° 0 mm 4 m/S 758 mmHg 43%
    19:00 +17°C° 0 mm 4 m/S 758 mmHg 49%
    20:00 +14°C° 0 mm 4 m/S 759 mmHg 56%
    21:00 +14°C° 0 mm 4 m/S 759 mmHg 60%
    22:00 +13°C° 0 mm 4 m/S 759 mmHg 63%
    23:00 +12°C° 0 mm 4 m/S 759 mmHg 67%

    30 August, Freitag

    Zeit Temperatur Niederschläge Wind Luftdruck Luftfeuchtigkeit
    00:00 +12°C° 0 mm 4 m/S 759 mmHg 69%
    01:00 +11°C° 0 mm 3 m/S 759 mmHg 71%
    02:00 +10°C° 0 mm 3 m/S 759 mmHg 73%
    03:00 +10°C° 0 mm 3 m/S 760 mmHg 75%
    04:00 +9°C° 0 mm 3 m/S 760 mmHg 77%
    05:00 +9°C° 0 mm 3 m/S 760 mmHg 79%
    06:00 +10°C° 0 mm 3 m/S 760 mmHg 72%
    07:00 +12°C° 0 mm 3 m/S 760 mmHg 65%
    08:00 +14°C° 0 mm 3 m/S 760 mmHg 59%
    09:00 +16°C° 0 mm 3 m/S 760 mmHg 51%
    10:00 +18°C° 0 mm 3 m/S 760 mmHg 44%
    11:00 +20°C° 0 mm 4 m/S 760 mmHg 37%
    12:00 +21°C° 0 mm 3 m/S 760 mmHg 33%
    13:00 +21°C° 0 mm 3 m/S 759 mmHg 29%
    14:00 +22°C° 0 mm 3 m/S 759 mmHg 26%
    15:00 +23°C° 0 mm 2 m/S 759 mmHg 27%
    16:00 +23°C° 0 mm 2 m/S 759 mmHg 28%
    17:00 +23°C° 0 mm 2 m/S 758 mmHg 29%
    18:00 +19°C° 0 mm 2 m/S 758 mmHg 34%
    19:00 +17°C° 0 mm 3 m/S 758 mmHg 38%
    20:00 +14°C° 0 mm 3 m/S 758 mmHg 42%
    21:00 +14°C° 0 mm 3 m/S 759 mmHg 46%
    22:00 +13°C° 0 mm 3 m/S 759 mmHg 50%
    23:00 +12°C° 0 mm 3 m/S 759 mmHg 53%
    Mehr zeigen